{"data":{"norad_id":43491,"epoch":"2026-09-20T01:54:07.437600Z","epoch_age_seconds":50788,"freshness":"FRESH","line1":"1 43491U 18050A   26263.07925275 -.00000133  00000+0  00000+0 0  9997","line2":"2 43491   3.2684  77.8757 0002500 146.5823 242.3855  1.00272334 30399","mean_motion":1.00272334,"eccentricity":0.00025,"inclination_deg":3.2684,"raan_deg":77.8757,"arg_perigee_deg":146.5823,"mean_anomaly_deg":242.3855,"bstar":0,"rev_number":3039,"period_min":1436.0890412703,"perigee_km":35775.899912749,"apogee_km":35796.982201778,"semimajor_km":42164.578057264,"source":"CELESTRAK","updated_at":"2026-09-20T09:00:35.261209Z"}}